Time,TemperatureF,DewpointF,PressureIn,WindDirection,WindDirectionDegrees,WindSpeedMPH,WindSpeedGustMPH,Humidity,HourlyPrecipIn,Conditions,Clouds,dailyrainin,SoftwareType,DateUTC
2013-04-27 00:03:00,62.0,57.0,30.32,ESE,113,1.0,3.0,84,0.00,,,0.00,,2013-04-27 04:03:00,
2013-04-27 00:13:00,62.0,57.0,30.32,ESE,113,1.0,3.0,84,0.00,,,0.00,,2013-04-27 04:13:00,
2013-04-27 00:23:00,62.0,57.0,30.32,ENE,78,1.0,4.0,85,0.00,,,0.00,,2013-04-27 04:23:00,
2013-04-27 00:33:00,62.0,58.0,30.31,East,94,1.0,4.0,86,0.00,,,0.00,,2013-04-27 04:33:00,
2013-04-27 00:43:00,62.0,58.0,30.31,East,94,1.0,4.0,86,0.00,,,0.00,,2013-04-27 04:43:00,
2013-04-27 00:52:00,62.0,58.0,30.32,ENE,69,1.0,4.0,87,0.00,,,0.00,,2013-04-27 04:52:00,
2013-04-27 01:02:00,62.0,58.0,30.31,NNE,27,1.0,3.0,87,0.00,,,0.00,,2013-04-27 05:02:00,
2013-04-27 01:12:00,62.0,58.0,30.31,NNE,27,1.0,3.0,87,0.00,,,0.00,,2013-04-27 05:12:00,
2013-04-27 01:22:00,62.0,58.0,30.31,ENE,57,1.0,4.0,87,0.00,,,0.00,,2013-04-27 05:22:00,
2013-04-27 01:32:00,62.0,58.0,30.31,North,11,1.0,4.0,88,0.00,,,0.00,,2013-04-27 05:32:00,
2013-04-27 01:42:00,62.0,58.0,30.31,North,11,1.0,4.0,88,0.00,,,0.00,,2013-04-27 05:42:00,
2013-04-27 01:52:00,62.0,58.0,30.31,NE,51,1.0,6.0,88,0.00,,,0.00,,2013-04-27 05:52:00,
2013-04-27 02:02:00,62.0,59.0,30.31,East,87,1.0,5.0,89,0.00,,,0.00,,2013-04-27 06:02:00,
2013-04-27 02:12:00,62.0,59.0,30.31,East,87,1.0,5.0,89,0.00,,,0.00,,2013-04-27 06:12:00,
2013-04-27 02:22:00,62.0,59.0,30.30,ENE,78,2.0,5.0,89,0.00,,,0.00,,2013-04-27 06:22:00,
2013-04-27 02:32:00,62.0,59.0,30.30,East,79,2.0,5.0,89,0.00,,,0.00,,2013-04-27 06:32:00,
2013-04-27 02:42:00,62.0,59.0,30.30,East,79,2.0,5.0,89,0.00,,,0.00,,2013-04-27 06:42:00,
2013-04-27 02:52:00,62.0,59.0,30.30,NNE,33,0.0,4.0,89,0.00,,,0.00,,2013-04-27 06:52:00,
2013-04-27 03:02:00,62.0,59.0,30.30,NNE,26,1.0,5.0,89,0.00,,,0.00,,2013-04-27 07:02:00,
2013-04-27 03:11:00,62.0,59.0,30.30,NNE,26,1.0,5.0,89,0.00,,,0.00,,2013-04-27 07:11:00,
2013-04-27 03:21:00,62.0,59.0,30.30,NNE,31,1.0,5.0,89,0.00,,,0.00,,2013-04-27 07:21:00,
2013-04-27 03:32:00,62.0,59.0,30.30,NE,34,1.0,5.0,89,0.00,,,0.00,,2013-04-27 07:32:00,
2013-04-27 03:42:00,62.0,59.0,30.30,NE,34,1.0,5.0,89,0.00,,,0.00,,2013-04-27 07:42:00,
2013-04-27 03:52:00,62.0,59.0,30.30,NNE,22,1.0,6.0,89,0.00,,,0.00,,2013-04-27 07:52:00,
2013-04-27 04:02:00,62.0,59.0,30.28,ENE,66,2.0,7.0,89,0.00,,,0.00,,2013-04-27 08:02:00,
2013-04-27 04:12:00,62.0,59.0,30.28,ENE,66,2.0,7.0,89,0.00,,,0.00,,2013-04-27 08:12:00,
2013-04-27 04:21:00,62.0,59.0,30.29,East,80,0.0,4.0,89,0.00,,,0.00,,2013-04-27 08:21:00,
2013-04-27 04:33:00,62.0,59.0,30.29,NNE,22,1.0,6.0,89,0.00,,,0.00,,2013-04-27 08:33:00,
2013-04-27 04:42:00,62.0,59.0,30.29,NNE,22,1.0,6.0,89,0.00,,,0.00,,2013-04-27 08:42:00,
2013-04-27 04:51:00,62.0,59.0,30.30,North,5,0.0,6.0,89,0.00,,,0.00,,2013-04-27 08:51:00,
2013-04-27 05:01:00,62.0,59.0,30.29,NNW,340,0.0,4.0,89,0.00,,,0.00,,2013-04-27 09:01:00,
2013-04-27 05:11:00,62.0,59.0,30.29,NNW,340,0.0,4.0,89,0.00,,,0.00,,2013-04-27 09:11:00,
2013-04-27 05:21:00,61.0,58.0,30.29,NNE,30,0.0,4.0,90,0.00,,,0.00,,2013-04-27 09:21:00,
2013-04-27 05:33:00,61.0,58.0,30.29,NE,43,1.0,5.0,90,0.00,,,0.00,,2013-04-27 09:33:00,
2013-04-27 05:43:00,61.0,58.0,30.29,NE,43,1.0,5.0,90,0.00,,,0.00,,2013-04-27 09:43:00,
2013-04-27 05:53:00,61.0,58.0,30.29,North,9,0.0,4.0,91,0.00,,,0.00,,2013-04-27 09:53:00,
2013-04-27 06:03:00,60.0,57.0,30.29,North,5,2.0,7.0,91,0.00,,,0.00,,2013-04-27 10:03:00,
2013-04-27 06:12:00,60.0,57.0,30.29,North,5,2.0,7.0,91,0.00,,,0.00,,2013-04-27 10:12:00,
2013-04-27 06:22:00,60.0,57.0,30.28,NNE,19,0.0,4.0,91,0.00,,,0.00,,2013-04-27 10:22:00,
2013-04-27 06:33:00,60.0,57.0,30.28,NE,48,0.0,3.0,91,0.00,,,0.00,,2013-04-27 10:33:00,
2013-04-27 06:42:00,60.0,57.0,30.28,NE,48,0.0,3.0,91,0.00,,,0.00,,2013-04-27 10:42:00,
2013-04-27 06:52:00,60.0,58.0,30.28,NNE,31,0.0,3.0,92,0.00,,,0.00,,2013-04-27 10:52:00,
2013-04-27 07:02:00,60.0,58.0,30.28,NNE,30,0.0,3.0,92,0.00,,,0.00,,2013-04-27 11:02:00,
2013-04-27 07:12:00,61.0,59.0,30.29,NNE,26,0.0,4.0,92,0.00,,,0.00,,2013-04-27 11:12:00,
2013-04-27 07:22:00,61.0,59.0,30.29,NNE,26,0.0,4.0,92,0.00,,,0.00,,2013-04-27 11:22:00,
2013-04-27 07:32:00,61.0,59.0,30.29,NNE,26,0.0,3.0,92,0.00,,,0.00,,2013-04-27 11:32:00,
2013-04-27 07:42:00,61.0,59.0,30.29,NNE,26,0.0,3.0,92,0.00,,,0.00,,2013-04-27 11:42:00,
2013-04-27 07:52:00,61.0,59.0,30.30,NNE,21,0.0,2.0,92,0.00,,,0.00,,2013-04-27 11:52:00,
2013-04-27 08:01:00,60.0,57.0,30.31,NW,325,0.0,2.0,91,0.00,,,0.00,,2013-04-27 12:01:00,
2013-04-27 08:11:00,60.0,57.0,30.31,NW,325,0.0,2.0,91,0.00,,,0.00,,2013-04-27 12:11:00,
2013-04-27 08:22:00,60.0,58.0,30.32,NW,325,0.0,2.0,92,0.00,,,0.00,,2013-04-27 12:22:00,
2013-04-27 08:32:00,60.0,58.0,30.32,NNW,328,1.0,3.0,92,0.00,,,0.00,,2013-04-27 12:32:00,
2013-04-27 08:42:00,60.0,58.0,30.32,NNW,328,1.0,3.0,92,0.00,,,0.00,,2013-04-27 12:42:00,
2013-04-27 08:52:00,61.0,59.0,30.32,NW,326,0.0,3.0,92,0.00,,,0.00,,2013-04-27 12:52:00,
2013-04-27 09:02:00,61.0,58.0,30.32,North,360,1.0,4.0,91,0.00,,,0.00,,2013-04-27 13:02:00,
2013-04-27 09:12:00,61.0,58.0,30.32,North,360,1.0,4.0,91,0.00,,,0.00,,2013-04-27 13:12:00,
2013-04-27 09:21:00,62.0,59.0,30.32,North,5,0.0,3.0,90,0.00,,,0.00,,2013-04-27 13:21:00,
2013-04-27 09:32:00,62.0,59.0,30.32,NE,40,1.0,4.0,89,0.00,,,0.00,,2013-04-27 13:32:00,
2013-04-27 09:42:00,62.0,59.0,30.32,NE,40,1.0,4.0,89,0.00,,,0.00,,2013-04-27 13:42:00,
2013-04-27 09:52:00,63.0,59.0,30.32,NE,42,1.0,5.0,87,0.00,,,0.00,,2013-04-27 13:52:00,
2013-04-27 10:02:00,64.0,60.0,30.32,East,101,0.0,6.0,86,0.00,,,0.00,,2013-04-27 14:02:00,
2013-04-27 10:11:00,64.0,60.0,30.32,East,101,0.0,6.0,86,0.00,,,0.00,,2013-04-27 14:11:00,
2013-04-27 10:21:00,64.0,59.0,30.32,ENE,68,2.0,7.0,84,0.00,,,0.00,,2013-04-27 14:21:00,
2013-04-27 10:32:00,64.0,59.0,30.32,North,9,3.0,7.0,83,0.00,,,0.00,,2013-04-27 14:32:00,
2013-04-27 10:42:00,64.0,59.0,30.32,North,9,3.0,7.0,83,0.00,,,0.00,,2013-04-27 14:42:00,
2013-04-27 10:52:00,65.0,59.0,30.32,North,5,1.0,7.0,81,0.00,,,0.00,,2013-04-27 14:52:00,
2013-04-27 11:01:00,67.0,60.0,30.32,North,11,4.0,8.0,77,0.00,,,0.00,,2013-04-27 15:01:00,
2013-04-27 11:12:00,67.0,60.0,30.32,North,11,4.0,8.0,77,0.00,,,0.00,,2013-04-27 15:12:00,
2013-04-27 11:22:00,68.0,60.0,30.31,ESE,104,1.0,8.0,76,0.00,,,0.00,,2013-04-27 15:22:00,
2013-04-27 11:33:00,69.0,60.0,30.31,ESE,114,1.0,6.0,74,0.00,,,0.00,,2013-04-27 15:33:00,
2013-04-27 11:43:00,69.0,60.0,30.31,ESE,114,1.0,6.0,74,0.00,,,0.00,,2013-04-27 15:43:00,
2013-04-27 11:52:00,69.0,60.0,30.31,WSW,257,1.0,6.0,73,0.00,,,0.00,,2013-04-27 15:52:00,
2013-04-27 12:03:00,68.0,59.0,30.30,East,87,1.0,6.0,74,0.00,,,0.00,,2013-04-27 16:03:00,
2013-04-27 12:13:00,68.0,59.0,30.30,East,87,1.0,6.0,74,0.00,,,0.00,,2013-04-27 16:13:00,
2013-04-27 12:22:00,68.0,59.0,30.32,SE,141,2.0,6.0,74,0.00,,,0.00,,2013-04-27 16:22:00,
2013-04-27 12:33:00,69.0,60.0,30.31,ENE,59,2.0,9.0,73,0.00,,,0.00,,2013-04-27 16:33:00,
2013-04-27 12:42:00,69.0,60.0,30.31,ENE,59,2.0,9.0,73,0.00,,,0.00,,2013-04-27 16:42:00,
2013-04-27 12:52:00,70.0,59.0,30.31,ENE,57,2.0,8.0,69,0.00,,,0.00,,2013-04-27 16:52:00,
2013-04-27 13:02:00,70.0,59.0,30.30,ENE,57,2.0,9.0,68,0.00,,,0.00,,2013-04-27 17:02:00,
2013-04-27 13:12:00,70.0,59.0,30.30,ENE,57,2.0,9.0,68,0.00,,,0.00,,2013-04-27 17:12:00,
2013-04-27 13:22:00,69.0,58.0,30.29,SE,129,2.0,6.0,69,0.00,,,0.00,,2013-04-27 17:22:00,
2013-04-27 13:32:00,68.0,57.0,30.29,East,84,1.0,6.0,69,0.00,,,0.00,,2013-04-27 17:32:00,
2013-04-27 13:42:00,68.0,57.0,30.29,East,84,1.0,6.0,69,0.00,,,0.00,,2013-04-27 17:42:00,
2013-04-27 13:53:00,68.0,57.0,30.28,ENE,64,2.0,6.0,68,0.00,,,0.00,,2013-04-27 17:53:00,
2013-04-27 14:02:00,68.0,57.0,30.29,NE,55,3.0,5.0,68,0.00,,,0.00,,2013-04-27 18:02:00,
2013-04-27 14:12:00,68.0,57.0,30.29,NE,55,3.0,5.0,68,0.00,,,0.00,,2013-04-27 18:12:00,
2013-04-27 14:22:00,68.0,57.0,30.28,East,94,2.0,6.0,69,0.00,,,0.00,,2013-04-27 18:22:00,
2013-04-27 14:32:00,69.0,57.0,30.28,East,86,2.0,4.0,66,0.00,,,0.00,,2013-04-27 18:32:00,
2013-04-27 14:42:00,69.0,57.0,30.28,East,86,2.0,4.0,66,0.00,,,0.00,,2013-04-27 18:42:00,
2013-04-27 14:52:00,69.0,57.0,30.29,East,86,1.0,6.0,66,0.00,,,0.00,,2013-04-27 18:52:00,
2013-04-27 15:02:00,71.0,58.0,30.28,ESE,111,1.0,5.0,63,0.00,,,0.00,,2013-04-27 19:02:00,
2013-04-27 15:11:00,71.0,58.0,30.28,ESE,111,1.0,5.0,63,0.00,,,0.00,,2013-04-27 19:11:00,
2013-04-27 15:21:00,72.0,58.0,30.28,ESE,112,1.0,4.0,61,0.00,,,0.00,,2013-04-27 19:21:00,
2013-04-27 15:32:00,72.0,58.0,30.28,ESE,116,1.0,4.0,62,0.00,,,0.00,,2013-04-27 19:32:00,
2013-04-27 15:42:00,72.0,58.0,30.28,ESE,116,1.0,4.0,62,0.00,,,0.00,,2013-04-27 19:42:00,
2013-04-27 15:52:00,72.0,58.0,30.28,ESE,109,1.0,5.0,61,0.00,,,0.00,,2013-04-27 19:52:00,
2013-04-27 16:02:00,72.0,58.0,30.27,West,277,2.0,6.0,61,0.00,,,0.00,,2013-04-27 20:02:00,
2013-04-27 16:11:00,72.0,58.0,30.27,West,277,2.0,6.0,61,0.00,,,0.00,,2013-04-27 20:11:00,
2013-04-27 16:21:00,71.0,56.0,30.27,East,80,1.0,7.0,60,0.00,,,0.00,,2013-04-27 20:21:00,
2013-04-27 16:32:00,71.0,56.0,30.27,SE,126,1.0,7.0,59,0.00,,,0.00,,2013-04-27 20:32:00,
2013-04-27 16:42:00,71.0,56.0,30.27,SE,126,1.0,7.0,59,0.00,,,0.00,,2013-04-27 20:42:00,
2013-04-27 16:52:00,70.0,56.0,30.26,ENE,71,2.0,8.0,62,0.00,,,0.00,,2013-04-27 20:52:00,
2013-04-27 17:02:00,69.0,55.0,30.26,SE,129,1.0,5.0,60,0.00,,,0.00,,2013-04-27 21:02:00,
2013-04-27 17:12:00,69.0,55.0,30.26,SE,129,1.0,5.0,60,0.00,,,0.00,,2013-04-27 21:12:00,
2013-04-27 17:21:00,68.0,53.0,30.25,SSE,153,2.0,7.0,58,0.00,,,0.00,,2013-04-27 21:21:00,
2013-04-27 17:33:00,68.0,53.0,30.25,East,101,1.0,6.0,58,0.00,,,0.00,,2013-04-27 21:33:00,
2013-04-27 17:43:00,68.0,53.0,30.25,East,101,1.0,6.0,58,0.00,,,0.00,,2013-04-27 21:43:00,
2013-04-27 17:53:00,67.0,52.0,30.25,South,169,2.0,7.0,59,0.00,,,0.00,,2013-04-27 21:53:00,
2013-04-27 18:03:00,67.0,52.0,30.25,East,80,1.0,5.0,58,0.00,,,0.00,,2013-04-27 22:03:00,
2013-04-27 18:13:00,67.0,52.0,30.25,East,80,1.0,5.0,58,0.00,,,0.00,,2013-04-27 22:13:00,
2013-04-27 18:22:00,66.0,50.0,30.26,ENE,62,2.0,7.0,56,0.00,,,0.00,,2013-04-27 22:22:00,
2013-04-27 18:32:00,66.0,49.0,30.27,NW,323,1.0,8.0,54,0.00,,,0.00,,2013-04-27 22:32:00,
2013-04-27 18:42:00,66.0,49.0,30.27,NW,323,1.0,8.0,54,0.00,,,0.00,,2013-04-27 22:42:00,
2013-04-27 18:52:00,66.0,48.0,30.27,East,92,2.0,7.0,53,0.00,,,0.00,,2013-04-27 22:52:00,
2013-04-27 19:02:00,65.0,50.0,30.26,East,90,2.0,6.0,59,0.00,,,0.00,,2013-04-27 23:02:00,
2013-04-27 19:12:00,65.0,50.0,30.26,East,90,2.0,6.0,59,0.00,,,0.00,,2013-04-27 23:12:00,
2013-04-27 19:22:00,65.0,51.0,30.27,ESE,103,2.0,6.0,61,0.00,,,0.00,,2013-04-27 23:22:00,
2013-04-27 19:32:00,65.0,53.0,30.27,ENE,62,3.0,6.0,64,0.00,,,0.00,,2013-04-27 23:32:00,
2013-04-27 19:42:00,65.0,53.0,30.27,ENE,62,3.0,6.0,64,0.00,,,0.00,,2013-04-27 23:42:00,
2013-04-27 19:52:00,64.0,53.0,30.26,ENE,74,3.0,8.0,67,0.00,,,0.00,,2013-04-27 23:52:00,
2013-04-27 20:01:00,64.0,54.0,30.25,ENE,77,3.0,5.0,69,0.00,,,0.00,,2013-04-28 00:01:00,
2013-04-27 20:12:00,64.0,54.0,30.25,ENE,77,3.0,5.0,69,0.00,,,0.00,,2013-04-28 00:12:00,
2013-04-27 20:21:00,64.0,54.0,30.25,ENE,71,2.0,7.0,71,0.00,,,0.00,,2013-04-28 00:21:00,
2013-04-27 20:32:00,64.0,55.0,30.25,ENE,71,2.0,8.0,73,0.00,,,0.00,,2013-04-28 00:32:00,
2013-04-27 20:43:00,64.0,55.0,30.25,ENE,71,2.0,8.0,73,0.00,,,0.00,,2013-04-28 00:43:00,
2013-04-27 20:52:00,64.0,56.0,30.25,ENE,74,2.0,8.0,75,0.00,,,0.00,,2013-04-28 00:52:00,
2013-04-27 21:02:00,63.0,55.0,30.26,East,101,2.0,9.0,75,0.00,,,0.00,,2013-04-28 01:02:00,
2013-04-27 21:11:00,63.0,55.0,30.25,ENE,70,2.0,6.0,75,0.00,,,0.00,,2013-04-28 01:11:00,
2013-04-27 21:22:00,63.0,55.0,30.25,ENE,70,2.0,6.0,75,0.00,,,0.00,,2013-04-28 01:22:00,
2013-04-27 21:32:00,63.0,55.0,30.24,ENE,78,3.0,4.0,76,0.00,,,0.00,,2013-04-28 01:32:00,
2013-04-27 21:42:00,63.0,55.0,30.24,ENE,78,3.0,4.0,76,0.00,,,0.00,,2013-04-28 01:42:00,
2013-04-27 21:52:00,63.0,56.0,30.24,NE,46,2.0,7.0,77,0.00,,,0.00,,2013-04-28 01:52:00,
2013-04-27 22:02:00,63.0,56.0,30.24,ENE,64,1.0,4.0,78,0.00,,,0.00,,2013-04-28 02:02:00,
2013-04-27 22:12:00,63.0,56.0,30.24,ENE,64,1.0,4.0,78,0.00,,,0.00,,2013-04-28 02:12:00,
2013-04-27 22:22:00,63.0,56.0,30.25,ESE,114,1.0,4.0,77,0.00,,,0.00,,2013-04-28 02:22:00,
2013-04-27 22:32:00,64.0,57.0,30.25,NE,53,0.0,2.0,78,0.00,,,0.00,,2013-04-28 02:32:00,
2013-04-27 22:42:00,64.0,57.0,30.25,NE,53,0.0,2.0,78,0.00,,,0.00,,2013-04-28 02:42:00,
2013-04-27 22:52:00,64.0,57.0,30.25,ENE,74,1.0,5.0,79,0.00,,,0.00,,2013-04-28 02:52:00,
2013-04-27 23:01:00,64.0,58.0,30.24,SE,146,0.0,3.0,81,0.00,,,0.00,,2013-04-28 03:01:00,
2013-04-27 23:11:00,64.0,58.0,30.24,SE,146,0.0,3.0,81,0.00,,,0.00,,2013-04-28 03:11:00,
2013-04-27 23:21:00,63.0,57.0,30.24,ENE,74,1.0,7.0,81,0.00,,,0.00,,2013-04-28 03:21:00,
2013-04-27 23:33:00,63.0,57.0,30.24,NE,42,0.0,5.0,82,0.00,,,0.00,,2013-04-28 03:33:00,
2013-04-27 23:43:00,63.0,57.0,30.24,NE,42,0.0,5.0,82,0.00,,,0.00,,2013-04-28 03:43:00,
2013-04-27 23:53:00,63.0,57.0,30.23,ESE,110,0.0,5.0,82,0.00,,,0.00,,2013-04-28 03:53:00,